| time (UTC) | temp C | wind direction | speed KPH | gust KPH | rain 1hr cm | rain 24hr cm | rain mn cm | humidity % | barometer mb |
| 20260505035323 | 17 | 209 | 1.6 | 3.2 | 0.00 | 0.00 | 0.00 | 66 | 1033.2 |
| 20260505034821 | 17 | 344 | 0.0 | 0.0 | 0.00 | 0.00 | 0.00 | 64 | 1033.4 |
| 20260505034317 | 17 | 294 | 0.0 | 0.0 | 0.00 | 0.00 | 0.00 | 66 | 1033.3 |
| 20260505033815 | 17 | 348 | 0.0 | 0.0 | 0.00 | 0.00 | 0.00 | 63 | 1033.4 |
| 20260505033311 | 17 | 345 | 0.0 | 0.0 | 0.00 | 0.00 | 0.00 | 63 | 1033.3 |
| 20260505032810 | 17 | 334 | 0.0 | 0.0 | 0.00 | 0.00 | 0.00 | 64 | 1033.4 |
| 20260505032305 | 17 | 317 | 0.0 | 0.0 | 0.00 | 0.00 | 0.00 | 64 | 1033.3 |
| 20260505031803 | 17 | 346 | 0.0 | 0.0 | 0.00 | 0.00 | 0.00 | 63 | 1033.2 |
| 20260505031259 | 17 | 330 | 0.0 | 0.0 | 0.00 | 0.00 | 0.00 | 64 | 1033.2 |
| 20260505030757 | 18 | 338 | 0.0 | 0.0 | 0.00 | 0.00 | 0.00 | 60 | 1033.2 |
| 20260505030252 | 17 | 338 | 0.0 | 0.0 | 0.00 | 0.00 | 0.00 | 62 | 1033.3 |
| 20260505025747 | 17 | 338 | 0.0 | 0.0 | 0.00 | 0.00 | 0.00 | 62 | 1033.2 |
| 20260505025246 | 18 | 337 | 0.0 | 0.0 | 0.00 | 0.00 | 0.00 | 62 | 1033.4 |
| 20260505024744 | 18 | 351 | 0.0 | 0.0 | 0.00 | 0.00 | 0.00 | 59 | 1033.4 |
| 20260505024241 | 18 | 351 | 0.0 | 0.0 | 0.00 | 0.00 | 0.00 | 62 | 1033.5 |
| 20260505023738 | 18 | 351 | 0.0 | 0.0 | 0.00 | 0.00 | 0.00 | 62 | 1033.4 |
| 20260505023235 | 18 | 351 | 0.0 | 0.0 | 0.00 | 0.00 | 0.00 | 62 | 1033.4 |
| 20260505022733 | 18 | 351 | 0.0 | 0.0 | 0.00 | 0.00 | 0.00 | 64 | 1033.1 |
| 20260505022230 | 18 | 351 | 0.0 | 0.0 | 0.00 | 0.00 | 0.00 | 63 | 1033.3 |
| 20260505021726 | 18 | 351 | 0.0 | 0.0 | 0.00 | 0.00 | 0.00 | 60 | 1033.1 |
| 20260505021223 | 18 | 351 | 0.0 | 0.0 | 0.00 | 0.00 | 0.00 | 58 | 1033.1 |
| 20260505020719 | 18 | 351 | 0.0 | 0.0 | 0.00 | 0.00 | 0.00 | 61 | 1033.4 |
| 20260505020214 | 18 | 351 | 0.0 | 0.0 | 0.00 | 0.00 | 0.00 | 58 | 1033.3 |
| 20260505015712 | 18 | 351 | 0.0 | 0.0 | 0.00 | 0.00 | 0.00 | 58 | 1033.1 |
| 20260505015209 | 19 | 351 | 0.0 | 0.0 | 0.00 | 0.00 | 0.00 | 59 | 1033.1 |
| 20260505014706 | 19 | 351 | 0.0 | 0.0 | 0.00 | 0.00 | 0.00 | 56 | 1033.0 |
| 20260505014203 | 19 | 351 | 0.0 | 0.0 | 0.00 | 0.00 | 0.00 | 58 | 1033.0 |
| 20260505013659 | 19 | 351 | 0.0 | 0.0 | 0.00 | 0.00 | 0.00 | 61 | 1032.8 |
| 20260505013151 | 19 | 351 | 0.0 | 0.0 | 0.00 | 0.00 | 0.00 | 60 | 1032.8 |
| 20260505012650 | 20 | 351 | 0.0 | 0.0 | 0.00 | 0.00 | 0.00 | 57 | 1032.9 |
| 20260505012147 | 20 | 351 | 0.0 | 0.0 | 0.00 | 0.00 | 0.00 | 55 | 1032.8 |
| 20260505011642 | 20 | 351 | 0.0 | 0.0 | 0.00 | 0.00 | 0.00 | 55 | 1032.7 |
| 20260505011140 | 20 | 351 | 0.0 | 0.0 | 0.00 | 0.00 | 0.00 | 54 | 1033.0 |
| 20260505010640 | 20 | 352 | 0.0 | 0.0 | 0.00 | 0.00 | 0.00 | 54 | 1032.7 |
| 20260505010137 | 20 | 351 | 0.0 | 0.0 | 0.00 | 0.00 | 0.00 | 54 | 1032.7 |
| 20260505005632 | 20 | 353 | 0.0 | 0.0 | 0.00 | 0.00 | 0.00 | 55 | 1032.7 |
| 20260505005130 | 20 | 353 | 0.0 | 0.0 | 0.00 | 0.00 | 0.00 | 52 | 1032.6 |
| 20260505004627 | 21 | 353 | 0.0 | 0.0 | 0.00 | 0.00 | 0.00 | 53 | 1032.6 |
| 20260505004123 | 21 | 356 | 0.0 | 0.0 | 0.00 | 0.00 | 0.00 | 50 | 1032.7 |
| 20260505003621 | 21 | 356 | 0.0 | 0.0 | 0.00 | 0.00 | 0.00 | 49 | 1032.7 |
| 20260505003118 | 21 | 355 | 0.0 | 0.0 | 0.00 | 0.00 | 0.00 | 49 | 1032.6 |
| 20260505002614 | 21 | 357 | 0.0 | 0.0 | 0.00 | 0.00 | 0.00 | 49 | 1032.6 |
| 20260505002113 | 21 | 357 | 0.0 | 0.0 | 0.00 | 0.00 | 0.00 | 50 | 1032.7 |
| 20260505001609 | 21 | 356 | 0.0 | 0.0 | 0.00 | 0.00 | 0.00 | 49 | 1032.4 |
| 20260505001107 | 22 | 356 | 0.0 | 1.6 | 0.00 | 0.00 | 0.00 | 49 | 1032.3 |
| 20260505000604 | 22 | 357 | 0.0 | 0.0 | 0.00 | 0.00 | 0.00 | 48 | 1032.5 |
| 20260504235558 | 22 | 6 | 0.0 | 0.0 | 0.00 | 0.00 | 0.00 | 48 | 1032.5 |
| 20260504235054 | 22 | 6 | 0.0 | 0.0 | 0.00 | 0.00 | 0.00 | 47 | 1032.4 |
| 20260504234551 | 22 | 7 | 0.0 | 0.0 | 0.00 | 0.00 | 0.00 | 47 | 1032.5 |
| 20260504234049 | 23 | 4 | 0.0 | 0.0 | 0.00 | 0.00 | 0.00 | 46 | 1032.5 |
| 20260504233544 | 23 | 354 | 0.0 | 0.0 | 0.00 | 0.00 | 0.00 | 46 | 1032.8 |
| 20260504233041 | 23 | 350 | 0.0 | 1.6 | 0.00 | 0.00 | 0.00 | 46 | 1032.7 |
| 20260504232538 | 23 | 350 | 0.0 | 0.0 | 0.00 | 0.00 | 0.00 | 46 | 1032.7 |
| 20260504232036 | 23 | 352 | 0.0 | 0.0 | 0.00 | 0.00 | 0.00 | 46 | 1032.8 |
| 20260504231532 | 23 | 14 | 0.0 | 0.0 | 0.00 | 0.00 | 0.00 | 46 | 1032.5 |
| 20260504231028 | 23 | 0 | 0.0 | 0.0 | 0.00 | 0.00 | 0.00 | 45 | 1032.5 |
| 20260504230524 | 23 | 356 | 1.6 | 1.6 | 0.00 | 0.00 | 0.00 | 43 | 1032.8 |
| 20260504230023 | 23 | 352 | 1.6 | 1.6 | 0.00 | 0.00 | 0.00 | 44 | 1032.8 |
| 20260504225520 | 23 | 348 | 1.6 | 3.2 | 0.00 | 0.00 | 0.00 | 44 | 1032.8 |
| 20260504225017 | 23 | 13 | 0.0 | 0.0 | 0.00 | 0.00 | 0.00 | 43 | 1032.8 |
| 20260504224514 | 23 | 13 | 0.0 | 0.0 | 0.00 | 0.00 | 0.00 | 45 | 1032.9 |
| 20260504224011 | 24 | 332 | 0.0 | 0.0 | 0.00 | 0.00 | 0.00 | 45 | 1032.9 |
| 20260504223507 | 24 | 18 | 0.0 | 0.0 | 0.00 | 0.00 | 0.00 | 43 | 1033.0 |
| 20260504223003 | 24 | 25 | 0.0 | 0.0 | 0.00 | 0.00 | 0.00 | 43 | 1032.8 |
| 20260504222500 | 24 | 0 | 0.0 | 0.0 | 0.00 | 0.00 | 0.00 | 45 | 1033.0 |
| 20260504221958 | 25 | 354 | 3.2 | 3.2 | 0.00 | 0.00 | 0.00 | 42 | 1032.9 |
| 20260504221455 | 25 | 300 | 1.6 | 3.2 | 0.00 | 0.00 | 0.00 | 39 | 1032.8 |
| 20260504220952 | 25 | 68 | 0.0 | 0.0 | 0.00 | 0.00 | 0.00 | 44 | 1033.0 |
| 20260504220448 | 25 | 21 | 0.0 | 0.0 | 0.00 | 0.00 | 0.00 | 40 | 1033.0 |
| 20260504215945 | 26 | 16 | 0.0 | 0.0 | 0.00 | 0.00 | 0.00 | 39 | 1033.1 |
| 20260504215442 | 26 | 19 | 0.0 | 0.0 | 0.00 | 0.00 | 0.00 | 38 | 1032.9 |
| 20260504214938 | 26 | 41 | 0.0 | 0.0 | 0.00 | 0.00 | 0.00 | 40 | 1033.1 |
| 20260504214435 | 25 | 233 | 0.0 | 0.0 | 0.00 | 0.00 | 0.00 | 41 | 1033.1 |
| 20260504213932 | 25 | 20 | 0.0 | 0.0 | 0.00 | 0.00 | 0.00 | 44 | 1033.0 |
| 20260504213428 | 25 | 344 | 3.2 | 3.2 | 0.00 | 0.00 | 0.00 | 46 | 1033.2 |
| 20260504212926 | 25 | 351 | 0.0 | 1.6 | 0.00 | 0.00 | 0.00 | 43 | 1033.4 |
| 20260504212421 | 25 | 25 | 0.0 | 0.0 | 0.00 | 0.00 | 0.00 | 45 | 1032.9 |
| 20260504211919 | 25 | 344 | 0.0 | 0.0 | 0.00 | 0.00 | 0.00 | 44 | 1033.2 |
| 20260504211415 | 25 | 5 | 0.0 | 0.0 | 0.00 | 0.00 | 0.00 | 43 | 1033.2 |
| 20260504210912 | 25 | 347 | 0.0 | 1.6 | 0.00 | 0.00 | 0.00 | 46 | 1033.1 |
| 20260504210409 | 25 | 348 | 0.0 | 0.0 | 0.00 | 0.00 | 0.00 | 46 | 1033.1 |
| 20260504205907 | 24 | 13 | 1.6 | 1.6 | 0.00 | 0.00 | 0.00 | 45 | 1033.3 |
| 20260504205404 | 24 | 26 | 0.0 | 0.0 | 0.00 | 0.00 | 0.00 | 47 | 1033.4 |
| 20260504204902 | 24 | 6 | 1.6 | 3.2 | 0.00 | 0.00 | 0.00 | 43 | 1033.4 |
| 20260504204400 | 25 | 343 | 4.8 | 4.8 | 0.00 | 0.00 | 0.00 | 44 | 1033.4 |
| 20260504203900 | 25 | 9 | 0.0 | 0.0 | 0.00 | 0.00 | 0.00 | 45 | 1033.3 |
| 20260504203356 | 25 | 7 | 0.0 | 0.0 | 0.00 | 0.00 | 0.00 | 42 | 1033.4 |
| 20260504202852 | 25 | 19 | 0.0 | 0.0 | 0.00 | 0.00 | 0.00 | 44 | 1033.5 |
| 20260504202349 | 25 | 35 | 0.0 | 0.0 | 0.00 | 0.00 | 0.00 | 47 | 1033.2 |
| 20260504201845 | 25 | 339 | 1.6 | 1.6 | 0.00 | 0.00 | 0.00 | 46 | 1033.6 |
| 20260504201343 | 25 | 29 | 0.0 | 0.0 | 0.00 | 0.00 | 0.00 | 45 | 1033.6 |
| 20260504200840 | 24 | 2 | 0.0 | 0.0 | 0.00 | 0.00 | 0.00 | 45 | 1033.5 |
| 20260504200337 | 24 | 21 | 0.0 | 0.0 | 0.00 | 0.00 | 0.00 | 45 | 1033.8 |
| 20260504195833 | 24 | 6 | 0.0 | 0.0 | 0.00 | 0.00 | 0.00 | 46 | 1033.7 |
| 20260504195329 | 25 | 334 | 1.6 | 3.2 | 0.00 | 0.00 | 0.00 | 43 | 1033.9 |
| 20260504194826 | 25 | 18 | 1.6 | 1.6 | 0.00 | 0.00 | 0.00 | 44 | 1034.2 |
| 20260504194322 | 25 | 356 | 0.0 | 1.6 | 0.00 | 0.00 | 0.00 | 39 | 1034.0 |
| 20260504193818 | 25 | 21 | 0.0 | 0.0 | 0.00 | 0.00 | 0.00 | 41 | 1034.1 |
| 20260504193316 | 24 | 10 | 3.2 | 3.2 | 0.00 | 0.00 | 0.00 | 45 | 1034.3 |
| 20260504192814 | 25 | 328 | 3.2 | 4.8 | 0.00 | 0.00 | 0.00 | 43 | 1034.1 |
| 20260504192312 | 26 | 342 | 1.6 | 1.6 | 0.00 | 0.00 | 0.00 | 41 | 1034.0 |
| 20260504191810 | 26 | 345 | 1.6 | 1.6 | 0.00 | 0.00 | 0.00 | 43 | 1034.2 |
| 20260504191307 | 26 | 11 | 0.0 | 0.0 | 0.00 | 0.00 | 0.00 | 44 | 1034.4 |
| 20260504190802 | 26 | 16 | 0.0 | 0.0 | 0.00 | 0.00 | 0.00 | 44 | 1034.5 |
| 20260504190259 | 26 | 17 | 0.0 | 0.0 | 0.00 | 0.00 | 0.00 | 43 | 1034.4 |
| 20260504185755 | 26 | 119 | 1.6 | 1.6 | 0.00 | 0.00 | 0.00 | 41 | 1034.5 |
| 20260504185253 | 25 | 10 | 1.6 | 3.2 | 0.00 | 0.00 | 0.00 | 46 | 1034.5 |
| 20260504184749 | 26 | 20 | 0.0 | 0.0 | 0.00 | 0.00 | 0.00 | 46 | 1034.8 |
| 20260504184244 | 25 | 10 | 1.6 | 1.6 | 0.00 | 0.00 | 0.00 | 46 | 1034.6 |
| 20260504183740 | 25 | 10 | 0.0 | 1.6 | 0.00 | 0.00 | 0.00 | 45 | 1035.0 |
| 20260504183237 | 25 | 356 | 0.0 | 0.0 | 0.00 | 0.00 | 0.00 | 42 | 1034.8 |
| 20260504182736 | 25 | 337 | 3.2 | 4.8 | 0.00 | 0.00 | 0.00 | 44 | 1035.1 |
| 20260504182233 | 25 | 26 | 0.0 | 0.0 | 0.00 | 0.00 | 0.00 | 46 | 1035.1 |
| 20260504181730 | 25 | 19 | 0.0 | 0.0 | 0.00 | 0.00 | 0.00 | 46 | 1035.2 |
| 20260504181227 | 25 | 188 | 1.6 | 1.6 | 0.00 | 0.00 | 0.00 | 41 | 1035.2 |
| 20260504180726 | 25 | 338 | 3.2 | 3.2 | 0.00 | 0.00 | 0.00 | 43 | 1035.4 |
| 20260504180225 | 25 | 175 | 3.2 | 3.2 | 0.00 | 0.00 | 0.00 | 45 | 1035.1 |
| 20260504175722 | 25 | 20 | 0.0 | 0.0 | 0.00 | 0.00 | 0.00 | 47 | 1035.7 |
| 20260504175218 | 25 | 349 | 0.0 | 0.0 | 0.00 | 0.00 | 0.00 | 46 | 1035.6 |
| 20260504174716 | 25 | 214 | 1.6 | 4.8 | 0.00 | 0.00 | 0.00 | 45 | 1035.6 |
| 20260504174214 | 25 | 7 | 0.0 | 0.0 | 0.00 | 0.00 | 0.00 | 44 | 1035.3 |
| 20260504173710 | 26 | 12 | 0.0 | 1.6 | 0.00 | 0.00 | 0.00 | 43 | 1035.7 |
| 20260504173208 | 25 | 351 | 0.0 | 0.0 | 0.00 | 0.00 | 0.00 | 47 | 1035.7 |
| 20260504172704 | 23 | 14 | 0.0 | 0.0 | 0.00 | 0.00 | 0.00 | 43 | 1035.6 |
| 20260504172200 | 23 | 342 | 0.0 | 0.0 | 0.00 | 0.00 | 0.00 | 47 | 1035.8 |
| 20260504171657 | 23 | 334 | 4.8 | 4.8 | 0.00 | 0.00 | 0.00 | 46 | 1035.9 |
| 20260504171154 | 24 | 20 | 0.0 | 0.0 | 0.00 | 0.00 | 0.00 | 45 | 1036.0 |
| 20260504170650 | 23 | 353 | 0.0 | 0.0 | 0.00 | 0.00 | 0.00 | 48 | 1036.1 |
| 20260504170148 | 24 | 31 | 0.0 | 0.0 | 0.00 | 0.00 | 0.00 | 49 | 1036.3 |
| 20260504151033 | 21 | 342 | 0.0 | 1.6 | 0.00 | 0.00 | 0.00 | 58 | 1036.9 |
| 20260504150531 | 20 | 352 | 0.0 | 0.0 | 0.00 | 0.00 | 0.00 | 59 | 1037.0 |
| 20260504140957 | 16 | 343 | 0.0 | 0.0 | 0.00 | 0.00 | 0.00 | 70 | 1037.2 |
| 20260504140453 | 16 | 12 | 0.0 | 0.0 | 0.00 | 0.00 | 0.00 | 70 | 1037.4 |
| 20260504130418 | 11 | 179 | 0.0 | 0.0 | 0.00 | 0.00 | 0.00 | 92 | 1037.3 |
| 20260504110305 | 8 | 54 | 0.0 | 0.0 | 0.00 | 0.00 | 0.00 | 98 | 1036.7 |
| 20260504100223 | 8 | 46 | 0.0 | 0.0 | 0.00 | 0.00 | 0.00 | 97 | 1036.7 |
| 20260504081616 | 9 | 344 | 0.0 | 0.0 | 0.00 | 0.00 | 0.00 | 96 | 1036.6 |
| 20260504081112 | 9 | 344 | 0.0 | 0.0 | 0.00 | 0.00 | 0.00 | 96 | 1036.5 |
| 20260504080609 | 8 | 344 | 0.0 | 0.0 | 0.00 | 0.00 | 0.00 | 96 | 1036.7 |
| 20260504080105 | 8 | 344 | 0.0 | 0.0 | 0.00 | 0.00 | 0.00 | 96 | 1036.8 |
| 20260504050416 | 11 | 344 | 0.0 | 0.0 | 0.00 | 0.00 | 0.00 | 89 | 1037.9 |
| 20260504045913 | 11 | 344 | 0.0 | 0.0 | 0.00 | 0.00 | 0.00 | 87 | 1037.8 |
| 20260504045408 | 11 | 344 | 0.0 | 0.0 | 0.00 | 0.00 | 0.00 | 86 | 1037.7 |
| 20260504044905 | 11 | 344 | 0.0 | 0.0 | 0.00 | 0.00 | 0.00 | 85 | 1037.9 |
| 20260504044403 | 11 | 344 | 0.0 | 0.0 | 0.00 | 0.00 | 0.00 | 84 | 1038.0 |
| 20260504043900 | 11 | 344 | 0.0 | 0.0 | 0.00 | 0.00 | 0.00 | 84 | 1037.9 |
| 20260504043356 | 11 | 344 | 0.0 | 0.0 | 0.00 | 0.00 | 0.00 | 83 | 1038.1 |
| 20260504042854 | 11 | 342 | 0.0 | 0.0 | 0.00 | 0.00 | 0.00 | 83 | 1038.0 |
| 20260504042350 | 11 | 343 | 0.0 | 0.0 | 0.00 | 0.00 | 0.00 | 82 | 1038.1 |
| 20260504041847 | 11 | 332 | 0.0 | 0.0 | 0.00 | 0.00 | 0.00 | 83 | 1038.1 |
| 20260504041343 | 11 | 358 | 0.0 | 0.0 | 0.00 | 0.00 | 0.00 | 83 | 1038.1 |
| 20260504040839 | 12 | 359 | 0.0 | 0.0 | 0.00 | 0.00 | 0.00 | 83 | 1038.2 |
| 20260504040337 | 12 | 359 | 0.0 | 0.0 | 0.00 | 0.00 | 0.00 | 82 | 1038.1 |
| 20260504035832 | 12 | 359 | 0.0 | 0.0 | 0.00 | 0.00 | 0.00 | 83 | 1038.0 |